Weather History for Fort Stockton, TX

Change the Weather History Date:

Tuesday, January 22, 2013

  Actual Average Record
Temperature  
Mean Temperature 50 °F -  
Max Temperature 69 °F 61 °F 82 °F (2009)
Min Temperature 30 °F 37 °F 30 °F (2007)
Degree Days  
Heating Degree Days 16    
Moisture  
Dew Point 34 °F    
Average Humidity 57    
Maximum Humidity 83    
Minimum Humidity 28    
Precipitation  
Precipitation 0.00 in - - ()
Sea Level Pressure  
Sea Level Pressure 30.14 in    
Wind  
Wind Speed 5 mph (SSE)    
Max Wind Speed 13 mph    
Max Gust Speed -    
Visibility 10 miles    
Events      
Averages and records for this station are not official NWS values.
T = Trace of Precipitation, MM = Missing Value Source: NWS Daily Summary

Daily Weather History Graph

Daily Weather History Graph

Search for Another Location

Airport:

Trip Planner

Search our weather history database for the weather conditions in past years. The results will help you decide how hot, cold, wet, or windy it might be!

Date:

Astronomy

Jan. 22, 2013 Rise Set
Actual Time 7:48 AM CST 6:18 PM CST
Civil Twilight 7:22 AM CST 6:44 PM CST
Nautical Twilight 6:53 AM CST 7:13 PM CST
Astronomical Twilight 6:24 AM CST 7:42 PM CST
Moon 2:46 PM CST (1/22) 4:09 AM CST (1/22)
Length of Visible Light 11h 22m
Length of Day
10h 30m
Waxing Gibbous, 83% of the Moon is Illuminated
Jan 22
Waxing Gibbous
Jan 26
Full
Feb 3
Last Quarter
Feb 10
New
Feb 17
First Quarter

Hourly Weather History & Observations

Time (CST) Temp. Windchill Dew Point Humidity Pressure Visibility Wind Dir Wind Speed Gust Speed Precip Events Conditions
12:53 AM 39.0 °F 34.8 °F 28.0 °F 65% 30.14 in 10.0 mi South 5.8 mph - N/A   Clear
1:53 AM 39.0 °F 36.8 °F 28.0 °F 65% 30.14 in 10.0 mi South 3.5 mph - N/A   Clear
2:53 AM 37.9 °F 35.5 °F 28.9 °F 70% 30.14 in 10.0 mi Variable 3.5 mph - N/A   Clear
3:53 AM 37.0 °F 33.3 °F 28.9 °F 73% 30.14 in 10.0 mi SSE 4.6 mph - N/A   Clear
4:53 AM 35.1 °F - 28.9 °F 78% 30.17 in 10.0 mi Calm Calm - N/A   Partly Cloudy
5:53 AM 34.0 °F 28.0 °F 28.0 °F 79% 30.18 in 10.0 mi SW 6.9 mph - N/A   Clear
6:53 AM 34.0 °F 26.6 °F 28.0 °F 79% 30.18 in 10.0 mi SSW 9.2 mph - N/A   Clear
7:53 AM 30.9 °F 26.2 °F 26.1 °F 82% 30.20 in 10.0 mi SW 4.6 mph - N/A   Clear
8:53 AM 39.0 °F 33.4 °F 28.9 °F 67% 30.20 in 10.0 mi SW 8.1 mph - N/A   Clear
9:53 AM 48.0 °F - 30.9 °F 52% 30.20 in 10.0 mi Calm Calm - N/A   Clear
10:53 AM 54.0 °F - 30.9 °F 41% 30.20 in 10.0 mi Calm Calm - N/A   Clear
11:53 AM 57.0 °F - 30.0 °F 36% 30.18 in 10.0 mi Calm Calm - N/A   Clear
12:53 PM 62.1 °F - 30.9 °F 31% 30.14 in 10.0 mi Calm Calm - N/A   Clear
1:53 PM 66.9 °F - 33.1 °F 28% 30.11 in 10.0 mi NE 5.8 mph - N/A   Clear
2:53 PM 69.1 °F - 36.0 °F 30% 30.09 in 10.0 mi East 6.9 mph - N/A   Clear
3:53 PM 69.1 °F - 37.0 °F 31% 30.09 in 10.0 mi ESE 6.9 mph - N/A   Clear
4:53 PM 69.1 °F - 36.0 °F 30% 30.09 in 10.0 mi ESE 6.9 mph - N/A   Clear
5:53 PM 66.0 °F - 39.0 °F 37% 30.09 in 10.0 mi ESE 5.8 mph - N/A   Clear
6:53 PM 61.0 °F - 41.0 °F 48% 30.10 in 10.0 mi SSE 5.8 mph - N/A   Clear
7:53 PM 57.0 °F - 41.0 °F 55% 30.13 in 10.0 mi SSE 10.4 mph - N/A   Clear
8:53 PM 54.0 °F - 43.0 °F 66% 30.14 in 10.0 mi South 11.5 mph - N/A   Clear
9:53 PM 52.0 °F - 44.1 °F 74% 30.14 in 10.0 mi SSE 12.7 mph - N/A   Clear
10:53 PM 51.1 °F - 44.1 °F 77% 30.14 in 10.0 mi SSE 12.7 mph - N/A   Clear
11:53 PM 50.0 °F - 45.0 °F 83% 30.14 in 10.0 mi SSE 11.5 mph - N/A   Clear